Back to catalog

STARLINK-35224

AliveCommunicationsSSO
NORAD 65811·PAYLOAD·🇺🇸 United States

Launched Sep 26, 2025 from Vandenberg Space Force Base

Loading…

Next Passes (next 24 hours)

TLE

FreshSource: CelesTrak SupGP

Epoch: Sep 14, 2026, 15:38 UTC

1 65811C 25218W   26257.65187500 -.00043394  00000+0 -13471-2 0  2572
2 65811  97.2838 115.0759 0001397  86.3869 320.1570 15.33460433    19

Track STARLINK-35224 in real time with AllMySat

Download on the App Store